Location: Newark
(51.3318°N, 0.0053°E)
Time: 02:51:33
(UTC+00:00)

Envisat - Pass Details

Date: 28 January 2022
Orbit: 764 x 765 km, 98.2° (Epoch: 28 May)

Event Time Altitude Azimuth Distance (km) Brightness Sun altitude
Rises 06:22:14 0° 7° (N) 3,244 6.2 -12.7°
Reaches altitude 10° 06:24:52 10° 355° (N) 2,313 5.3 -12.3°
Maximum altitude 06:28:59 26° 300° (WNW) 1,488 3.9 -11.7°
Drops below altitude 10° 06:33:07 10° 246° (WSW) 2,302 5.0 -11.0°
Sets 06:35:44 0° 234° (SW) 3,224 5.9 -10.6°
